Location: Columbia
(38.9520°N, 92.3340°W)
Time: 05:39:37
(UTC-06:00)

Tiangong 1 - Visible Passes

Search period start: 01 February 2015 00:00
Search period end: 11 February 2015 00:00
Orbit: 354 x 373 km, 42.8° (Epoch: 01 February)

Date Brightness Start Highest point End Pass type
(mag) Time Alt. Az. Time Alt. Az. Time Alt. Az.
01 Feb 2.2 18:40:40 10° SSW 18:43:21 28° SSE 18:44:04 25° ESE visible
02 Feb 1.2 19:10:03 10° WSW 19:12:48 67° SW 19:12:48 67° SW visible
03 Feb 1.8 18:03:52 10° SW 18:06:44 39° SSE 18:09:36 10° E visible
03 Feb 3.4 19:39:58 10° W 19:41:23 23° W 19:41:23 23° W visible
04 Feb 1.0 18:33:20 10° WSW 18:36:22 79° NNW 18:38:02 24° ENE visible
05 Feb 1.6 19:03:09 10° W 19:06:06 43° N 19:06:22 42° N visible
06 Feb 3.1 19:32:56 10° WNW 19:34:34 25° NW 19:34:34 25° NW visible
07 Feb 1.8 18:25:59 10° WNW 18:28:53 39° N 18:30:56 17° ENE visible
07 Feb 4.4 20:02:27 10° WNW 20:02:42 12° WNW 20:02:42 12° WNW visible
08 Feb 1.7 18:55:33 10° WNW 18:58:26 39° N 18:58:59 35° NE visible
09 Feb 2.1 19:24:49 10° WNW 19:26:59 39° NW 19:26:59 39° NW visible
10 Feb 1.6 18:17:47 10° WNW 18:20:41 41° N 18:23:12 13° ENE visible
10 Feb 3.9 19:53:59 10° WNW 19:54:57 18° WNW 19:54:57 18° WNW visible
